sat.trackr.live / text

‹ back to catalog

STARLINK-31026

NORAD 58508 · 2023-191A

PAYLOAD ACTIVE UNKNOWN

§ Identity

Operator
Country
US
Launch date
2023-12-07
Launch site
AFETR
Launch vehicle
Mass (kg)
RCS (m²)

Purposes: comms

External: N2YO · Heavens-Above · Gunter

§ Orbital elements

Epoch: 2026-05-24T23:01:32.618784Z

Period
94.27 min
Inclination
43.0072°
Eccentricity
0.0001228
Mean motion
15.27589113 rev/d
Perigee alt
482.2 km
Apogee alt
483.9 km
Semi-major
6,861.2 km
B*
3.0558e-5
RAAN
39.6985°
Arg perigee
245.7334°
Mean anomaly
114.3389°
Rev number
13,705

§ Raw data

STARLINK-310261 58508U 23191A   26144.95940531  .00000579  00000+0  30558-4 0  99902 58508  43.0072  39.6985 0001228 245.7334 114.3389 15.27589113137052

JSON: /api/v1/satellites/58508 · /tle

For live sub-satellite position, see the globe view (requires WebGL).

§ Visibility from observer

Set your observer location to see the next 7 days of passes ≥ 10°. The values pass through the URL so the page stays shareable.

No JS? Fill the form by hand. The geolocation button needs JavaScript.